This is the latest recevied weather packets stored in our database for station/object W5ADC. If no packets are shown the sender has not sent any weather packets the latest 1 day(s).
| Time | Temp. | Humidity | Pressure | Rain* | Wind** | Luminosity | Snow |
|---|---|---|---|---|---|---|---|
| 1778042203 | 17.22° C | 80% | 1005.8 hPa | 0 mm | 1.79 m/s, 309° | 0 W/m² | - |
| 1778041901 | 17.22° C | 80% | 1005.7 hPa | 0 mm | 1.79 m/s, 19° | 0 W/m² | - |
| 1778041600 | 17.22° C | 80% | 1005.6 hPa | 0 mm | 1.79 m/s, 289° | 0 W/m² | - |
| 1778041297 | 17.22° C | 79% | 1005.5 hPa | 0 mm | 2.24 m/s, 42° | 0 W/m² | - |
| 1778040996 | 17.22° C | 79% | 1005.7 hPa | 0 mm | 0.89 m/s, 340° | 0 W/m² | - |
| 1778040692 | 17.22° C | 80% | 1005.2 hPa | 0 mm | 1.34 m/s, 2° | 0 W/m² | - |
| 1778040390 | 17.78° C | 80% | 1005.1 hPa | 0 mm | 4.02 m/s, 340° | 0 W/m² | - |
| 1778040086 | 17.78° C | 79% | 1005.3 hPa | 0 mm | 1.79 m/s, 243° | 0 W/m² | - |
| 1778039783 | 17.78° C | 80% | 1005.2 hPa | 0 mm | 2.24 m/s, 344° | 0 W/m² | - |
| 1778039479 | 17.78° C | 80% | 1005.4 hPa | 0 mm | 0.89 m/s, 46° | 0 W/m² | - |
| 1778039177 | 17.78° C | 80% | 1005.1 hPa | 0 mm | 1.34 m/s, 42° | 0 W/m² | - |
| 1778038874 | 18.33° C | 80% | 1005 hPa | 0 mm | 2.24 m/s, 257° | 0 W/m² | - |
| 1778038571 | 18.33° C | 80% | 1005 hPa | 0 mm | 1.79 m/s, 319° | 0 W/m² | - |
| 1778038268 | 18.89° C | 80% | 1004.9 hPa | 0 mm | 1.79 m/s, 333° | 0 W/m² | - |
| 1778037966 | 18.89° C | 79% | 1004.7 hPa | 0 mm | 2.68 m/s, 354° | 0 W/m² | - |
| 1778037662 | 18.89° C | 79% | 1004.8 hPa | 0 mm | 1.79 m/s, 301° | 0 W/m² | - |
| 1778037360 | 19.44° C | 79% | 1004.8 hPa | 0 mm | 2.24 m/s, 346° | 0 W/m² | - |
| 1778037056 | 20° C | 78% | 1004.4 hPa | 0 mm | 1.79 m/s, 11° | 0 W/m² | - |
| 1778036755 | 20° C | 79% | 1004.5 hPa | 0 mm | 0.45 m/s, 283° | 0 W/m² | - |
| 1778036452 | 20° C | 78% | 1004.5 hPa | 0 mm | 2.68 m/s, 294° | 0 W/m² | - |
| 1778036149 | 20.56° C | 78% | 1004.4 hPa | 0 mm | 0.89 m/s, 346° | 0 W/m² | - |
| 1778035844 | 20.56° C | 77% | 1004.1 hPa | 0 mm | 2.24 m/s, 81° | 0 W/m² | - |
| 1778035542 | 20.56° C | 77% | 1004.2 hPa | 0 mm | 1.79 m/s, 13° | 0 W/m² | - |
| 1778035238 | 20.56° C | 77% | 1003.9 hPa | 0 mm | 4.02 m/s, 321° | 0 W/m² | - |
| 1778034934 | 20.56° C | 77% | 1003.6 hPa | 0 mm | 3.13 m/s, 298° | 0 W/m² | - |
* Rain latest hour (hover to see other rain measurements)
** Current wind speed in m/s (hover to see current wind gust speed)